Temp
72 62 58 61 63 60 64 64 63 69 76 73 72 73 76 81 82 82 82 84 85 87 93 96 98 98 97 97 92 92 90 88 89 88 88 89 90 90 92 93 92 90 89 89
64 59 65 67 66 59 56 54 57 67 72 69 68 68 74 77 78 81 82 82 83 86 89 91 95 96 94 95 92 90 89 87 88 89 88 91 91 92 92 93 89 89 87 87
57 61 66 63 60 55 54 54 57 58 65 69 67 64 68 74 77 79 81 83 84 84 86 88 90 91 92 91 92 89 88 87 86 87 89 90 91 92 89 88 83 84 86 87
59 65 61 60 58 59 50 59 56 50 49 45 65 50 64 70 72 75 78 81 83 84 86 88 90 90 91 92 95 91 87 85 86 86 87 84 87 85 89 88 89 87 86 85
55 58 58 54 57 60 54 62 57 54 48 51 54 53 60 70 68 74 78 81 83 85 86 87 90 92 94 93 94 92 88 85 84 83 87 88 85 90 92 92 87 86 86 88
59 63 60 60 62 62 63 59 58 56 49 35 50 51 55 64 68 73 78 81 83 86 87 89 91 93 93 96 94 94 88 85 81 80 83 84 83 87 90 89 87 88 87 87
56 56 58 64 54 61 55 53 36 35 38 38 57 51 56 68 74 77 78 81 84 86 88 88 90 92 93 93 93 94 90 86 85 79 81 84 85 85 85 85 85 85 88 87
44 42 50 59 56 53 53 45 35 28 34 43 56 45 58 72 77 79 81 82 83 85 87 88 90 92 94 94 94 94 92 87 86 81 79 81 85 88 89 87 89 90 88 88
40 43 57 60 61 54 50 47 56 45 49 41 44 48 61 71 70 75 76 78 79 82 83 87 90 91 92 94 93 92 93 89 88 84 82 79 84 84 88 85 85 89 88 88
47 34 54 57 59 57 47 54 40 45 33 33 44 48 45 62 68 73 74 77 79 81 83 85 88 90 91 93 94 92 94 90 88 86 84 78 80 85 86 85 84 85 86 85
49 38 45 53 45 45 43 48 46 48 45 33 39 44 62 61 68 70 72 75 76 79 81 84 86 89 91 92 94 92 92 92 87 86 82 75 74 78 83 81 80 86 85 83
49 42 38 46 58 58 53 46 48 35 41 48 47 47 59 61 71 69 70 73 73 74 75 79 82 86 88 89 90 90 90 92 91 88 81 74 72 74 74 77 79 81 82 82
45 38 33 42 46 51 50 52 49 38 45 41 38 47 52 60 69 71 70 72 73 74 76 79 81 83 85 86 89 90 89 90 93 92 89 77 76 72 70 71 74 78 81 83
48 37 32 31 38 45 43 50 53 46 36 43 47 44 59 55 51 57 67 72 72 73 74 76 78 81 83 85 88 90 90 91 92 92 90 85 81 78 74 71 74 77 84 84
42 35 40 41 41 41 42 47 51 49 52 45 52 54 61 62 57 58 68 70 70 71 73 74 76 79 81 82 84 87 91 90 91 91 89 87 83 79 80 76 79 82 82 84
43 37 41 40 48 47 43 47 47 47 48 47 47 47 60 61 61 63 64 63 64 67 69 69 71 72 78 80 81 84 87 90 91 90 90 88 84 80 77 77 80 78 78 80
36 36 34 37 47 46 37 36 38 38 43 38 33 43 48 47 50 55 54 54 59 62 62 63 65 69 70 76 78 80 85 88 89 89 89 87 78 76 78 79 76 74 74 76
39 38 34 34 40 31 38 40 38 36 37 38 37 38 40 43 46 47 48 49 54 57 57 58 63 65 70 74 76 79 84 86 88 87 83 76 76 72 75 73 72 72 74 73
44 35 33 32 32 39 36 37 34 32 33 38 36 38 38 40 42 43 45 48 49 50 51 51 56 58 62 67 73 78 82 84 77 72 68 70 70 69 70 69 69 71 71 71
52 39 34 34 30 29 33 40 43 40 32 41 39 36 36 38 35 35 43 46 48 49 48 49 51 54 58 64 71 77 76 72 67 66 65 67 65 65 65 65 64 68 69 69
42 39 33 34 32 38 38 39 44 33 32 41 40 37 38 36 37 39 43 44 46 47 47 48 48 49 52 57 66 63 63 59 60 61 62 62 62 62 62 63 64 67 67 67
35 33 34 35 33 30 40 39 31 37 42 42 41 40 39 40 40 40 41 41 44 45 45 46 45 46 51 54 57 55 54 57 59 58 57 57 58 58 59 60 62 64 61 61
38 36 32 34 35 40 40 37 43 42 42 42 41 41 40 39 39 41 40 41 43 44 45 45 44 45 47 51 52 50 51 54 54 53 52 54 56 56 57 56 56 56 58 61
48 50 38 37 42 39 39 40 43 44 42 43 42 42 41 39 40 41 40 41 42 43 43 44 44 43 44 48 49 50 51 52 52 51 51 52 52 53 55 55 56 57 61 62
42 43 44 41 40 39 40 38 41 43 43 43 43 43 45 45 42 43 42 42 42 43 43 44 43 42 42 44 46 50 51 51 49 49 49 50 51 49 49 46 54 59 60 62
50 42 40 36 38 37 37 39 42 41 41 42 42 45 48 50 48 48 45 45 45 44 45 43 43 43 42 43 43 45 49 50 49 48 47 47 47 47 48 48 47 40 42 42
MSLP
1003.94 1003.86 1003.04 1002.48 1002.42 1002.51 1000.84 999.47 998.09 996.72 996.08 995.75 995.06 994.70 994.96 994.97 995.22 995.17 995.54 995.61 995.41 995.25 995.14 995.20 995.34 995.83 996.81 997.06 998.09 999.28 1000.07 1001.24 1002.36 1003.26 1004.00 1004.35 1004.73 1005.58 1006.04 1006.59 1007.24 1008.07 1008.86 1009.31
1004.26 1002.96 1002.65 1002.69 1002.63 1003.31 1002.90 1001.28 999.55 998.06 997.65 997.38 996.44 995.75 995.67 995.50 995.18 995.10 995.06 995.46 995.67 995.44 995.33 995.28 995.16 995.48 996.36 996.69 997.38 998.68 999.72 1000.74 1001.57 1002.41 1003.16 1003.52 1004.10 1004.81 1005.54 1006.10 1006.80 1007.40 1008.28 1008.74
1004.69 1003.96 1003.37 1003.06 1002.99 1003.36 1003.61 1002.36 1000.43 999.60 998.87 997.89 997.08 995.71 995.73 995.71 995.84 995.66 995.34 995.37 995.46 995.26 994.94 995.04 995.41 995.63 996.41 996.72 996.71 998.03 999.19 1000.15 1001.07 1001.82 1002.65 1003.16 1003.54 1004.22 1005.14 1005.92 1006.74 1007.36 1007.84 1008.35
1005.30 1004.53 1003.78 1003.52 1003.16 1002.92 1002.75 1002.95 1002.72 1002.60 1001.41 999.40 997.75 995.22 994.69 994.62 994.46 994.33 994.40 994.45 994.40 994.67 994.76 994.64 994.67 995.18 995.71 996.24 996.24 997.52 998.78 999.69 1000.54 1001.34 1001.69 1002.25 1002.32 1003.23 1004.12 1005.04 1006.07 1006.97 1007.65 1008.30
1005.22 1004.71 1004.19 1003.79 1003.45 1003.61 1003.20 1003.03 1002.83 1002.27 1002.31 1000.73 998.49 996.22 994.66 994.09 992.85 992.52 992.36 992.36 992.69 993.39 993.85 993.94 994.00 994.13 994.78 995.62 995.77 996.59 997.94 999.16 999.76 1000.62 1000.86 1001.57 1002.08 1002.62 1003.28 1003.88 1004.66 1005.71 1006.88 1007.47
1005.16 1005.43 1005.17 1003.96 1003.90 1003.59 1003.48 1003.13 1002.71 1002.34 1001.66 1000.86 999.07 997.20 994.69 992.95 992.27 991.78 991.68 991.79 991.85 992.11 992.42 992.74 992.88 993.18 993.70 994.45 995.23 995.39 996.77 998.22 999.45 1000.14 1000.83 1001.06 1001.62 1001.79 1002.39 1003.06 1003.84 1004.98 1006.08 1006.88
1005.64 1004.78 1005.10 1004.10 1004.32 1003.35 1003.85 1002.84 1002.88 1002.24 1000.87 999.51 997.98 996.78 994.64 992.74 991.52 990.66 990.54 990.72 990.91 991.29 991.29 991.71 991.80 992.00 992.38 993.12 994.04 994.54 995.68 997.09 998.38 999.53 1000.16 1000.75 1001.27 1001.72 1002.02 1002.65 1003.00 1004.05 1004.72 1005.64
1006.92 1005.49 1005.80 1005.46 1004.71 1003.77 1003.25 1004.44 1003.93 1001.93 1000.64 998.81 997.25 996.19 993.37 992.23 991.44 990.89 990.66 990.65 990.64 990.92 990.95 990.94 990.99 991.10 991.30 991.90 992.81 993.80 994.44 996.07 997.44 998.70 999.58 1000.21 1000.77 1001.07 1001.23 1001.70 1002.12 1002.87 1003.46 1004.74
1009.22 1007.02 1006.35 1005.30 1004.61 1005.06 1004.24 1003.17 1002.40 1001.94 1001.02 1000.03 998.95 997.62 994.62 991.75 991.36 990.84 990.91 990.88 990.94 991.19 991.30 990.70 990.70 990.69 990.90 991.20 991.89 993.04 993.52 994.94 996.19 997.63 998.60 999.30 999.62 999.48 999.56 1000.36 1001.40 1002.15 1002.76 1004.18
1010.74 1008.96 1006.68 1005.52 1005.39 1005.12 1005.70 1005.04 1003.90 1002.16 1001.50 999.68 997.69 995.96 994.30 991.28 990.72 990.40 990.55 990.50 991.00 991.18 991.30 991.08 990.65 990.63 990.95 991.06 991.50 992.48 993.20 994.05 995.38 996.40 997.39 998.21 998.96 999.30 999.56 1000.15 1000.96 1001.72 1002.48 1004.12
1011.40 1011.09 1007.75 1006.35 1005.71 1004.68 1005.03 1003.89 1004.16 1002.95 1002.20 1000.05 997.72 995.38 993.71 993.08 991.63 990.75 991.38 991.30 991.37 991.36 991.51 991.44 991.54 991.33 991.52 991.66 991.46 991.89 992.78 992.98 994.66 995.68 996.91 997.56 998.55 997.28 997.84 999.47 999.68 1000.50 1001.99 1003.46
1012.02 1011.29 1008.78 1006.13 1004.20 1004.52 1004.56 1004.46 1004.03 1004.33 1002.09 1000.18 998.23 996.62 995.76 994.47 992.41 992.81 991.94 992.52 993.38 993.40 993.59 993.23 992.31 991.87 991.89 992.07 992.10 992.12 992.56 992.43 993.21 994.73 996.54 997.39 997.13 998.27 996.13 997.88 999.46 999.21 1000.69 1003.52
1013.20 1011.94 1009.74 1006.15 1005.33 1005.09 1004.20 1004.12 1004.27 1004.94 1003.87 1001.50 999.93 997.02 997.04 995.54 994.05 994.09 993.79 993.94 994.08 994.46 994.51 994.02 993.39 992.61 992.35 992.33 991.95 991.93 992.55 992.39 992.33 993.40 994.54 996.56 998.10 998.39 999.70 998.74 1000.98 999.86 1000.84 1003.06
1013.15 1012.42 1011.39 1009.14 1006.96 1006.14 1005.13 1003.94 1003.71 1004.07 1003.45 1001.23 999.49 998.85 996.06 996.08 996.86 996.60 995.41 994.10 994.58 994.94 995.14 994.92 994.31 993.60 992.77 992.45 992.08 991.76 991.98 992.39 992.10 992.62 993.64 994.85 996.49 997.42 999.09 996.92 999.57 998.89 999.83 1002.00
1013.22 1012.09 1010.80 1009.24 1007.94 1007.03 1005.99 1004.65 1003.84 1003.09 1002.43 1001.64 999.81 997.98 996.63 996.26 997.44 997.45 996.21 995.39 994.99 995.05 995.04 994.77 994.30 994.02 993.48 993.00 992.83 992.06 991.48 991.93 992.08 992.11 993.05 994.29 995.98 997.29 998.52 999.08 999.70 1000.12 1000.29 1002.12
1013.21 1011.96 1010.36 1008.02 1006.18 1005.68 1005.62 1005.38 1005.41 1004.81 1004.19 1003.83 1002.65 1000.30 999.31 998.57 999.11 998.06 997.45 997.24 996.55 996.03 996.12 996.37 995.95 995.16 993.81 993.31 993.23 992.70 991.88 991.56 991.83 991.99 992.82 994.12 995.58 997.53 998.64 999.37 999.97 1001.27 1001.90 1002.72
1013.14 1012.23 1010.64 1007.61 1006.02 1005.41 1006.22 1007.00 1007.34 1007.25 1006.56 1006.46 1004.88 1003.31 1002.53 1001.43 1000.72 999.89 999.46 998.58 998.10 997.88 997.90 997.83 997.36 996.44 995.38 994.36 994.31 993.19 992.41 992.04 991.75 992.09 992.48 993.93 996.30 997.27 998.52 999.47 1000.89 1001.79 1002.52 1003.43
1012.14 1011.90 1011.43 1008.96 1007.29 1005.90 1007.63 1008.57 1008.94 1008.20 1007.28 1006.77 1006.36 1005.29 1004.38 1003.24 1002.53 1001.96 1001.27 1000.86 1000.04 999.54 999.32 999.00 998.38 997.55 996.52 995.55 994.94 993.81 992.84 992.49 992.21 992.82 993.30 995.12 996.78 997.98 999.06 1000.24 1001.10 1001.91 1002.95 1004.09
1011.62 1012.08 1011.47 1009.92 1008.64 1007.66 1008.48 1009.34 1009.10 1008.58 1007.04 1007.14 1006.73 1006.02 1005.44 1004.35 1003.32 1002.89 1002.89 1002.40 1001.62 1001.18 1000.62 1000.11 999.46 998.65 997.64 996.42 995.06 993.69 993.14 992.94 993.69 995.03 995.99 996.66 997.30 998.74 999.51 1000.50 1001.30 1002.27 1003.48 1004.77
1010.13 1011.96 1012.12 1010.63 1009.47 1008.71 1010.12 1009.66 1008.63 1008.24 1007.73 1007.45 1007.18 1006.97 1006.43 1005.26 1004.33 1004.80 1004.06 1003.34 1002.55 1001.88 1001.29 1000.42 999.79 998.74 997.53 996.24 994.77 993.35 993.64 994.55 995.65 996.71 997.32 998.09 998.46 999.80 1000.77 1001.51 1002.34 1003.45 1004.63 1005.65
1010.46 1011.36 1011.61 1010.96 1010.30 1009.68 1010.94 1010.74 1008.61 1008.43 1009.82 1008.24 1008.08 1007.84 1007.18 1006.58 1006.58 1006.09 1005.16 1004.08 1003.06 1002.37 1001.61 1000.72 1000.07 999.06 997.86 996.53 995.30 995.58 995.78 996.66 997.49 998.36 998.86 999.48 1000.18 1001.12 1002.05 1002.83 1003.76 1004.38 1005.46 1006.57
1011.52 1012.04 1011.83 1011.73 1011.17 1011.18 1012.06 1011.62 1011.59 1011.21 1009.80 1009.21 1008.81 1008.45 1008.01 1007.57 1007.02 1006.32 1005.62 1004.91 1003.71 1002.67 1001.79 1001.19 1000.59 999.59 998.45 997.46 996.76 997.21 997.41 998.01 998.58 999.30 1000.10 1000.94 1001.70 1002.44 1003.32 1003.91 1004.58 1005.50 1006.57 1007.59
1011.68 1013.12 1013.41 1013.40 1013.12 1013.34 1013.50 1013.31 1012.19 1011.47 1010.54 1010.04 1009.70 1009.40 1008.96 1008.33 1007.60 1006.89 1006.34 1005.26 1004.23 1003.25 1002.61 1002.21 1001.32 1000.39 999.57 999.15 998.95 998.53 999.47 999.38 999.83 1000.22 1001.77 1002.62 1003.03 1003.74 1004.60 1005.09 1005.83 1006.68 1007.65 1008.32
1011.82 1012.23 1012.83 1013.07 1012.95 1013.57 1013.87 1013.50 1012.76 1012.01 1011.51 1011.06 1010.68 1010.20 1009.65 1009.02 1008.27 1007.60 1007.01 1006.13 1005.31 1004.52 1003.75 1003.31 1002.42 1001.80 1001.48 1000.98 1000.82 1000.60 1000.84 1000.85 1000.92 1001.74 1003.00 1004.17 1004.47 1005.17 1005.63 1006.51 1007.13 1007.53 1007.89 1008.49
1012.82 1012.76 1012.24 1012.76 1013.57 1013.79 1013.92 1014.03 1013.43 1012.71 1012.24 1011.81 1011.58 1011.03 1010.14 1009.40 1008.74 1007.97 1007.42 1006.96 1006.21 1005.32 1004.85 1004.29 1003.83 1003.52 1003.50 1002.93 1002.80 1002.77 1002.69 1002.51 1003.00 1003.52 1004.38 1005.40 1006.03 1006.43 1007.04 1008.24 1008.42 1008.69 1008.95 1009.00
1011.64 1012.14 1012.33 1013.08 1014.15 1014.57 1014.58 1014.54 1013.88 1013.37 1013.00 1012.63 1012.20 1011.38 1010.80 1009.80 1009.08 1008.45 1007.86 1007.27 1007.21 1006.69 1006.17 1005.50 1005.32 1005.25 1005.16 1004.94 1004.76 1004.63 1004.48 1004.32 1004.57 1005.30 1005.89 1006.82 1007.20 1008.05 1008.73 1009.13 1010.20 1011.20 1010.96 1010.84
Wind_Speed
18 14 15 24 16 30 27 29 32 26 21 17 23 21 20 20 22 17 15 16 14 14 15 19 20 19 18 19 20 18 19 20 16 15 15 14 13 13 12 12 12 14 12 13
17 20 22 20 17 17 21 26 28 25 25 24 24 23 23 20 22 21 18 17 19 19 18 17 17 15 15 15 19 19 19 20 17 15 14 13 13 13 12 10 12 12 13 12
18 22 26 19 17 17 22 26 23 26 26 27 28 29 27 25 26 27 26 25 23 24 21 19 19 15 15 18 18 19 19 21 19 19 14 11 12 10 12 10 6 9 12 12
18 17 14 17 18 22 18 19 23 23 21 19 25 22 25 25 27 29 28 28 25 25 25 22 20 21 19 19 18 20 18 20 20 21 17 19 14 14 13 13 14 14 15 14
20 21 20 17 18 19 21 22 20 17 20 23 28 19 18 24 23 22 20 21 29 28 27 27 25 22 21 18 19 20 20 20 22 22 19 16 16 13 12 12 15 15 14 16
17 10 17 17 20 16 18 21 22 20 15 14 22 22 22 22 26 21 22 22 22 21 23 27 26 24 22 20 21 18 21 22 19 20 23 20 20 15 13 13 12 11 12 12
22 13 19 6 14 16 9 15 11 11 15 16 19 23 22 21 24 22 17 17 19 18 20 22 25 24 23 24 22 20 22 22 22 20 22 18 19 16 15 14 12 15 13 13
12 18 6 3 17 21 21 9 8 11 15 14 9 13 22 28 26 22 20 17 11 13 14 19 23 22 22 23 23 22 22 21 23 20 20 19 20 15 14 16 14 13 13 13
15 13 28 21 12 2 13 18 16 18 21 16 9 12 24 23 8 7 9 12 17 17 12 17 20 18 20 21 19 20 20 21 21 23 20 20 21 21 18 20 15 13 12 13
11 18 15 11 18 11 9 18 9 7 10 16 12 20 17 19 17 14 8 16 13 14 15 12 12 12 12 15 16 20 20 22 22 22 20 18 20 20 17 17 16 16 14 16
16 6 12 22 7 14 7 12 12 11 9 4 11 5 15 6 9 8 8 13 7 2 6 8 11 12 11 11 15 17 19 21 22 21 19 14 11 18 18 18 17 18 17 19
10 7 14 25 10 3 5 7 6 6 10 13 17 12 7 20 7 15 9 8 7 9 10 10 9 9 11 14 15 14 16 20 21 21 21 13 11 10 7 13 12 19 19 18
7 5 11 11 2 7 14 7 5 7 11 17 14 10 10 23 4 2 6 6 1 5 10 13 12 11 10 14 15 14 15 19 20 20 20 22 21 20 19 8 11 13 20 19
8 5 11 11 21 23 19 19 14 10 5 13 15 16 29 10 18 23 24 9 10 10 13 13 13 12 11 9 14 15 16 18 19 20 18 18 19 21 18 19 22 27 21 19
2 8 16 21 22 21 22 21 15 15 17 17 21 24 20 15 7 20 16 14 12 12 11 12 11 11 13 8 10 14 13 15 18 19 19 16 17 19 21 20 18 16 17 17
4 7 19 23 17 11 15 16 16 13 14 21 23 30 27 25 23 23 17 17 17 13 12 13 17 18 13 9 9 11 14 12 15 17 19 18 19 22 20 19 21 18 16 15
4 5 7 10 20 18 6 2 4 10 18 20 17 22 22 24 21 21 16 11 12 12 11 12 13 16 17 7 14 14 14 13 13 16 17 19 19 18 20 19 19 16 17 16
7 10 3 11 15 3 7 10 10 14 17 10 12 16 19 21 18 9 9 11 13 13 14 14 14 14 16 14 14 17 13 13 14 10 13 15 18 14 17 17 17 17 17 16
11 1 5 6 9 11 5 9 18 13 16 3 10 12 16 16 13 1 13 10 11 12 12 12 14 15 16 17 17 19 14 13 16 14 11 14 16 14 16 17 17 16 17 16
5 4 2 6 6 4 4 26 27 8 3 8 11 9 11 14 6 5 13 10 11 10 9 10 12 12 13 15 15 13 4 9 11 12 12 13 16 16 15 17 17 16 15 16
8 7 5 8 4 1 17 25 25 7 9 14 12 10 11 7 6 10 12 13 11 8 9 8 8 7 8 9 8 10 14 14 12 12 13 14 15 17 16 16 15 17 16 16
5 7 5 5 5 6 22 12 9 9 11 11 11 13 12 12 12 12 14 14 14 12 11 11 8 9 9 8 10 12 14 14 15 16 16 15 15 13 13 17 15 16 16 18
4 2 3 3 4 9 12 13 13 10 9 12 12 14 13 13 14 15 14 15 16 16 11 10 10 13 14 12 9 16 12 15 18 19 17 14 16 15 14 16 16 14 13 14
4 7 3 6 3 11 8 13 12 11 11 13 13 14 14 14 15 16 15 15 15 15 13 11 14 17 16 14 14 13 13 15 19 20 18 13 15 15 14 11 9 10 10 12
4 8 11 2 4 11 7 13 12 11 11 12 13 13 13 14 15 14 14 15 17 16 16 15 15 15 15 16 15 13 13 15 17 17 16 14 11 12 13 12 8 8 7 8
2 3 6 3 6 3 4 10 12 11 12 12 11 13 16 18 15 15 14 12 13 16 16 16 17 16 16 17 16 15 12 13 15 14 12 11 11 10 11 13 15 23 23 27
Wind_Direction
295 239 262 287 319 331 294 260 272 282 289 250 263 249 240 243 239 222 222 239 248 247 248 235 228 210 229 212 181 198 187 187 176 182 193 194 199 189 201 193 187 168 194 189
278 267 267 264 289 299 300 292 285 270 270 273 271 266 265 266 269 271 253 234 247 247 233 242 237 219 210 232 181 185 193 187 188 187 190 198 197 190 199 190 177 185 187 186
309 302 306 294 250 252 285 288 289 283 278 258 255 250 248 251 255 254 252 249 244 249 244 229 231 224 216 238 185 185 195 191 192 191 188 202 186 190 188 192 161 183 178 187
296 288 293 304 288 294 257 254 272 315 299 282 251 260 249 234 239 241 241 244 239 234 242 246 231 220 215 221 207 192 193 195 192 193 190 197 196 190 193 192 191 191 188 191
294 297 289 292 293 299 288 275 273 281 262 271 265 256 249 256 255 242 246 241 227 228 231 236 232 232 215 205 235 187 185 199 199 194 207 191 200 188 185 189 178 180 180 190
280 297 288 281 281 275 280 278 276 269 259 250 249 255 258 245 238 245 243 242 243 234 228 230 230 224 217 207 214 195 183 193 198 197 209 194 194 194 189 185 161 179 175 189
322 355 335 243 323 290 306 261 256 266 248 257 252 230 243 257 257 253 245 247 227 234 224 228 229 225 215 207 204 216 186 190 193 197 199 202 196 207 184 180 167 180 172 183
333 317 184 175 288 301 308 204 270 256 253 268 276 272 238 241 243 254 252 245 255 243 236 228 228 221 220 216 197 213 188 194 192 192 196 200 198 195 188 185 178 178 174 172
317 306 322 291 305 92 309 298 290 285 277 264 241 289 281 254 255 211 248 262 242 243 251 246 224 229 220 221 201 207 209 188 195 193 192 198 199 195 194 175 179 177 167 162
300 299 299 324 319 269 259 295 290 227 257 253 259 233 222 231 210 204 247 216 233 223 225 245 254 219 225 233 215 191 224 190 200 194 196 197 200 198 194 169 175 171 151 150
307 256 286 296 257 294 326 261 206 244 266 271 277 358 15 102 310 88 50 38 27 213 244 230 245 257 226 244 237 190 216 199 191 199 197 200 201 179 188 175 173 161 153 153
320 290 293 296 300 344 181 292 286 282 264 289 296 257 309 321 85 98 319 93 64 1 349 306 307 261 230 227 227 228 217 219 194 188 192 191 158 226 199 173 163 151 146 159
338 258 305 302 159 261 331 291 230 193 262 265 281 289 158 218 91 328 186 223 178 320 308 305 291 277 235 253 233 221 203 225 203 203 197 176 182 167 239 146 165 174 155 167
281 240 239 271 295 312 300 306 287 224 258 289 277 264 276 61 339 320 302 316 322 307 296 284 279 278 277 257 245 229 190 219 216 196 198 172 179 165 184 169 197 189 159 161
288 273 276 278 280 283 285 287 290 284 270 276 292 287 288 308 225 225 259 301 300 304 288 296 279 258 262 256 259 270 217 203 216 195 194 174 173 162 169 165 169 181 153 159
317 275 304 295 293 275 270 297 317 314 339 320 314 295 301 333 322 304 310 314 305 285 293 303 305 309 277 269 279 250 259 221 204 212 187 171 161 164 160 163 163 160 159 149
254 277 305 291 326 314 244 72 6 321 310 304 287 299 320 308 313 315 307 305 293 298 302 294 291 291 300 312 296 286 248 229 203 216 187 162 139 156 160 160 153 141 139 136
250 286 297 293 318 4 65 54 320 277 287 291 288 292 300 294 290 288 9 327 311 322 314 305 296 292 289 274 270 268 252 225 200 196 144 136 144 142 142 141 141 136 131 136
212 251 285 300 309 279 77 351 335 319 310 263 287 321 314 316 303 122 359 333 325 315 307 296 289 286 279 270 267 264 230 229 123 135 132 151 138 139 139 134 132 127 130 133
11 179 249 301 290 328 360 345 329 330 248 328 19 348 340 342 30 349 340 338 324 329 317 309 310 293 282 264 260 250 129 121 131 142 138 134 126 129 133 128 127 130 129 126
349 345 295 314 288 12 10 339 320 352 331 355 11 2 353 7 9 356 358 357 347 352 352 344 337 339 326 300 129 114 120 108 108 112 114 117 118 123 124 126 131 126 130 124
9 322 344 320 313 351 5 336 357 305 324 357 11 14 16 18 19 9 18 3 360 8 14 14 11 16 14 22 95 103 101 108 106 106 102 105 110 114 121 124 121 119 117 119
19 54 289 297 317 343 337 321 340 345 4 21 28 24 19 19 14 21 21 7 15 15 23 17 29 40 36 45 63 95 97 103 105 100 95 102 109 110 113 114 116 116 126 128
332 356 253 307 47 339 357 340 348 8 25 29 29 28 25 21 15 28 21 20 18 28 25 31 40 46 43 48 62 75 92 102 102 100 102 101 104 109 104 110 116 120 133 138
256 322 315 281 327 315 22 353 357 18 27 38 39 29 26 29 25 19 31 32 21 25 32 36 45 48 44 47 49 64 83 91 94 98 102 105 96 86 84 57 76 96 78 117
40 295 354 314 21 299 321 348 4 28 28 33 27 32 33 16 42 35 23 31 47 31 34 39 46 51 47 48 47 46 65 88 100 97 93 99 95 91 95 96 88 60 67 64